owner,sensor,date,latitude,longitude,vertical_datum,wind_speed,wind_to_direction,wind_speed_of_gust,qcFlag 
TABS,ioos:station:wmo:42043:1,2009-05-01T00:00:00Z,28.9818,-94.9186,4.0,5.327898272,146.2505698,6.66,'11111222,11111222,11111222' 
TABS,ioos:station:wmo:42043:1,2009-05-01T00:30:00Z,28.9818,-94.9186,4.0,5.755215026,150.3171397,7.29,'11111222,11111222,11111222' 
TABS,ioos:station:wmo:42043:1,2009-05-01T01:00:00Z,28.9818,-94.9186,4.0,5.219674319,152.5024698,7.0,'11111222,11111222,11111222' 
TABS,ioos:station:wmo:42043:1,2009-05-01T01:30:00Z,28.9818,-94.9186,4.0,5.257803724,151.4854843,6.39,'11111222,11111222,11111222' 
TABS,ioos:station:wmo:42043:1,2009-05-01T02:00:00Z,28.9818,-94.9186,4.0,5.375872022,152.7679146,6.48,'11111222,11111222,11111222' 
TABS,ioos:station:wmo:42043:1,2009-05-01T02:30:00Z,28.9818,-94.9186,4.0,6.664082833,152.6661985,8.46,'11111222,11111222,11111222' 
TABS,ioos:station:wmo:42043:1,2009-05-01T03:00:00Z,28.9818,-94.9186,4.0,6.936288633,153.3613392,8.54,'11111222,11111222,11111222' 
TABS,ioos:station:wmo:42043:1,2009-05-01T03:30:00Z,28.9818,-94.9186,4.0,7.379329238,153.9560766,9.59,'11111222,11111222,11111222' 
TABS,ioos:station:wmo:42043:1,2009-05-01T04:00:00Z,28.9818,-94.9186,4.0,7.120744343,155.7028146,8.66,'11111222,11111222,11111222' 
TABS,ioos:station:wmo:42043:1,2009-05-01T04:30:00Z,28.9818,-94.9186,4.0,6.323796328,156.5161501,8.21,'11111222,11111222,11111222' 
TABS,ioos:station:wmo:42043:1,2009-05-01T05:00:00Z,28.9818,-94.9186,4.0,5.974512532,156.5246425,7.09,'11111222,11111222,11111222' 
TABS,ioos:station:wmo:42043:1,2009-05-01T05:30:00Z,28.9818,-94.9186,4.0,6.157247762,162.1244125,8.1,'11111222,11111222,11111222' 
TABS,ioos:station:wmo:42043:1,2009-05-01T06:00:00Z,28.9818,-94.9186,4.0,5.942339607,168.8415797,7.26,'11111222,11111222,11111222' 
TABS,ioos:station:wmo:42043:1,2009-05-01T06:30:00Z,28.9818,-94.9186,4.0,5.833163807,166.4166379,7.31,'11111222,11111222,11111222' 
TABS,ioos:station:wmo:42043:1,2009-05-01T07:00:00Z,28.9818,-94.9186,4.0,5.832160835,159.4212169,7.47,'11111222,11111222,11111222' 
TABS,ioos:station:wmo:42043:1,2009-05-01T07:30:00Z,28.9818,-94.9186,4.0,6.007478672,154.6722397,7.87,'11111222,11111222,11111222' 
TABS,ioos:station:wmo:42043:1,2009-05-01T08:00:00Z,28.9818,-94.9186,4.0,6.408626998,153.1953248,8.22,'11111222,11111222,11111222' 
TABS,ioos:station:wmo:42043:1,2009-05-01T08:30:00Z,28.9818,-94.9186,4.0,5.521566807,157.1968103,7.3,'11111222,11111222,11111222' 
TABS,ioos:station:wmo:42043:1,2009-05-01T09:00:00Z,28.9818,-94.9186,4.0,5.44242593,159.5674296,6.74,'11111222,11111222,11111222' 
TABS,ioos:station:wmo:42043:1,2009-05-01T09:30:00Z,28.9818,-94.9186,4.0,6.114981603,158.0074612,8.06,'11111222,11111222,11111222' 
TABS,ioos:station:wmo:42043:1,2009-05-01T10:00:00Z,28.9818,-94.9186,4.0,6.446588245,154.9457905,8.07,'11111222,11111222,11111222' 
TABS,ioos:station:wmo:42043:1,2009-05-01T10:30:00Z,28.9818,-94.9186,4.0,6.794593439,158.2301696,9.07,'11111222,11111222,11111222' 
TABS,ioos:station:wmo:42043:1,2009-05-01T11:00:00Z,28.9818,-94.9186,4.0,5.562454494,161.6630232,6.9,'11111222,11111222,11111222' 
TABS,ioos:station:wmo:42043:1,2009-05-01T11:30:00Z,28.9818,-94.9186,4.0,5.607147225,164.3776803,7.08,'11111222,11111222,11111222' 
TABS,ioos:station:wmo:42043:1,2009-05-01T12:00:00Z,28.9818,-94.9186,4.0,5.309510335,161.3264321,7.14,'11111222,11111222,11111222' 
TABS,ioos:station:wmo:42043:1,2009-05-01T12:30:00Z,28.9818,-94.9186,4.0,5.088821082,160.6039391,6.53,'11111222,11111222,11111222' 
TABS,ioos:station:wmo:42043:1,2009-05-01T13:00:00Z,28.9818,-94.9186,4.0,3.561825375,160.1408398,4.64,'11111222,11111222,11111222' 
TABS,ioos:station:wmo:42043:1,2009-05-01T13:30:00Z,28.9818,-94.9186,4.0,3.946061327,166.0696462,5.18,'11111222,11111222,11111222' 
TABS,ioos:station:wmo:42043:1,2009-05-01T14:00:00Z,28.9818,-94.9186,4.0,4.348850423,172.3359351,5.49,'11111222,11111222,11111222' 
TABS,ioos:station:wmo:42043:1,2009-05-01T14:30:00Z,28.9818,-94.9186,4.0,4.468165172,183.4645529,5.84,'11111222,11111222,11111222' 
TABS,ioos:station:wmo:42043:1,2009-05-01T15:00:00Z,28.9818,-94.9186,4.0,3.427083308,172.7922638,4.32,'11111222,11111222,11111222' 
TABS,ioos:station:wmo:42043:1,2009-05-01T15:30:00Z,28.9818,-94.9186,4.0,3.005544876,152.6679149,3.9,'11111222,11111222,11111222' 
TABS,ioos:station:wmo:42043:1,2009-05-01T16:00:00Z,28.9818,-94.9186,4.0,2.545152255,148.4960174,3.39,'11111222,11111222,11111222' 
TABS,ioos:station:wmo:42043:1,2009-05-01T16:30:00Z,28.9818,-94.9186,4.0,2.255238347,155.3670802,3.3,'11111222,11111222,11111222' 
TABS,ioos:station:wmo:42043:1,2009-05-01T17:00:00Z,28.9818,-94.9186,4.0,2.111231868,149.5484965,2.81,'11111222,11111222,11111222' 
TABS,ioos:station:wmo:42043:1,2009-05-01T17:30:00Z,28.9818,-94.9186,4.0,2.228744041,137.0003033,3.05,'11111222,11111222,11111222' 
TABS,ioos:station:wmo:42043:1,2009-05-01T18:00:00Z,28.9818,-94.9186,4.0,2.425633938,135.83547,3.26,'11111222,11111222,11111222' 
TABS,ioos:station:wmo:42043:1,2009-05-01T18:30:00Z,28.9818,-94.9186,4.0,2.641968963,156.3460524,3.4,'11111222,11111222,11111222' 
TABS,ioos:station:wmo:42043:1,2009-05-01T19:00:00Z,28.9818,-94.9186,4.0,3.453056617,152.3962951,4.63,'11111222,11111222,11111222' 
TABS,ioos:station:wmo:42043:1,2009-05-01T19:30:00Z,28.9818,-94.9186,4.0,3.886309303,149.5422118,4.95,'11111222,11111222,11111222' 
TABS,ioos:station:wmo:42043:1,2009-05-01T20:00:00Z,28.9818,-94.9186,4.0,4.494674627,157.0862252,5.85,'11111222,11111222,11111222' 
TABS,ioos:station:wmo:42043:1,2009-05-01T20:30:00Z,28.9818,-94.9186,4.0,4.507948536,153.6625839,5.61,'11111222,11111222,11111222' 
TABS,ioos:station:wmo:42043:1,2009-05-01T21:00:00Z,28.9818,-94.9186,4.0,4.890010225,151.8106203,6.35,'11111222,11111222,11111222' 
TABS,ioos:station:wmo:42043:1,2009-05-01T21:30:00Z,28.9818,-94.9186,4.0,5.610080213,142.8240081,6.78,'11111222,11111222,11111222' 
TABS,ioos:station:wmo:42043:1,2009-05-01T22:00:00Z,28.9818,-94.9186,4.0,5.748112734,143.4892397,6.93,'11111222,11111222,11111222' 
TABS,ioos:station:wmo:42043:1,2009-05-01T22:30:00Z,28.9818,-94.9186,4.0,6.091411987,139.3275953,7.38,'11111222,11111222,11111222' 
TABS,ioos:station:wmo:42043:1,2009-05-01T23:00:00Z,28.9818,-94.9186,4.0,6.190072697,143.4080817,7.58,'11111222,11111222,11111222' 
TABS,ioos:station:wmo:42043:1,2009-05-01T23:30:00Z,28.9818,-94.9186,4.0,6.79779376,153.0582818,8.71,'11111222,11111222,11111222' 
TABS,ioos:station:wmo:42043:1,2009-05-02T00:00:00Z,28.9818,-94.9186,4.0,6.938508485,150.1837024,8.79,'11111222,11111222,11111222' 
TABS,ioos:station:wmo:42043:1,2009-05-02T00:30:00Z,28.9818,-94.9186,4.0,7.11758386,150.9143994,8.93,'11111222,11111222,11111222' 
TABS,ioos:station:wmo:42043:1,2009-05-02T01:00:00Z,28.9818,-94.9186,4.0,7.459504005,157.8707998,9.52,'11111222,11111222,11111222' 
TABS,ioos:station:wmo:42043:1,2009-05-02T01:30:00Z,28.9818,-94.9186,4.0,7.538872595,161.5172379,9.81,'11111222,11111222,11111222' 
TABS,ioos:station:wmo:42043:1,2009-05-02T02:00:00Z,28.9818,-94.9186,4.0,7.933479691,167.9962749,9.76,'11111222,11111222,11111222' 
TABS,ioos:station:wmo:42043:1,2009-05-02T02:30:00Z,28.9818,-94.9186,4.0,7.884833543,165.9816238,10.24,'11111222,11111222,11111222' 
TABS,ioos:station:wmo:42043:1,2009-05-02T03:00:00Z,28.9818,-94.9186,4.0,8.203639436,166.8956919,10.89,'11111222,11111222,11111222' 
TABS,ioos:station:wmo:42043:1,2009-05-02T03:30:00Z,28.9818,-94.9186,4.0,7.519261932,165.2062629,9.94,'11111222,11111222,11111222' 
TABS,ioos:station:wmo:42043:1,2009-05-02T04:00:00Z,28.9818,-94.9186,4.0,7.197812168,167.2383136,9.45,'11111222,11111222,11111222' 
TABS,ioos:station:wmo:42043:1,2009-05-02T04:30:00Z,28.9818,-94.9186,4.0,6.382037292,170.8035761,7.98,'11111222,11111222,11111222' 
TABS,ioos:station:wmo:42043:1,2009-05-02T05:00:00Z,28.9818,-94.9186,4.0,6.589233643,174.601111,8.12,'11111222,11111222,11111222' 
TABS,ioos:station:wmo:42043:1,2009-05-02T05:30:00Z,28.9818,-94.9186,4.0,7.653241143,176.6293615,9.75,'11111222,11111222,11111222' 
TABS,ioos:station:wmo:42043:1,2009-05-02T06:00:00Z,28.9818,-94.9186,4.0,7.257837143,172.1603988,9.88,'11111222,11111222,11111222' 
TABS,ioos:station:wmo:42043:1,2009-05-02T06:30:00Z,28.9818,-94.9186,4.0,7.202846659,176.5777046,9.19,'11111222,11111222,11111222' 
TABS,ioos:station:wmo:42043:1,2009-05-02T07:00:00Z,28.9818,-94.9186,4.0,7.661135686,174.8328774,9.76,'11111222,11111222,11111222' 
TABS,ioos:station:wmo:42043:1,2009-05-02T07:30:00Z,28.9818,-94.9186,4.0,8.355321657,175.5384029,10.39,'11111222,11111222,11111222' 
TABS,ioos:station:wmo:42043:1,2009-05-02T08:00:00Z,28.9818,-94.9186,4.0,7.810057618,179.7801258,9.95,'11111222,11111222,11111222' 
TABS,ioos:station:wmo:42043:1,2009-05-02T08:30:00Z,28.9818,-94.9186,4.0,6.82760573,175.8847088,8.8,'11111222,11111222,11111222' 
TABS,ioos:station:wmo:42043:1,2009-05-02T09:00:00Z,28.9818,-94.9186,4.0,7.327189093,172.2350626,9.73,'11111222,11111222,11111222' 
TABS,ioos:station:wmo:42043:1,2009-05-02T09:30:00Z,28.9818,-94.9186,4.0,6.947244058,172.6399327,9.05,'11111222,11111222,11111222' 
TABS,ioos:station:wmo:42043:1,2009-05-02T10:00:00Z,28.9818,-94.9186,4.0,7.421219576,174.7428852,9.49,'11111222,11111222,11111222' 
TABS,ioos:station:wmo:42043:1,2009-05-02T10:30:00Z,28.9818,-94.9186,4.0,6.750407395,174.5598911,8.73,'11111222,11111222,11111222' 
TABS,ioos:station:wmo:42043:1,2009-05-02T11:00:00Z,28.9818,-94.9186,4.0,7.093412437,178.2229187,9.21,'11111222,11111222,11111222' 
TABS,ioos:station:wmo:42043:1,2009-05-02T11:30:00Z,28.9818,-94.9186,4.0,7.284023613,168.1966547,9.35,'11111222,11111222,11111222' 
TABS,ioos:station:wmo:42043:1,2009-05-02T12:00:00Z,28.9818,-94.9186,4.0,7.960552745,165.3006429,10.04,'11111222,11111222,11111222' 
TABS,ioos:station:wmo:42043:1,2009-05-02T12:30:00Z,28.9818,-94.9186,4.0,8.02239989,157.6550902,10.51,'11111222,11111222,11111222' 
TABS,ioos:station:wmo:42043:1,2009-05-02T13:00:00Z,28.9818,-94.9186,4.0,7.546721142,160.4128236,9.48,'11111222,11111222,11111222' 
TABS,ioos:station:wmo:42043:1,2009-05-02T13:30:00Z,28.9818,-94.9186,4.0,8.838693342,161.8727918,11.35,'11111222,11111222,11111222' 
TABS,ioos:station:wmo:42043:1,2009-05-02T14:00:00Z,28.9818,-94.9186,4.0,7.532018322,160.0496459,9.84,'11111222,11111222,11111222' 
TABS,ioos:station:wmo:42043:1,2009-05-02T14:30:00Z,28.9818,-94.9186,4.0,7.608429536,163.8996916,10.01,'11111222,11111222,11111222' 
TABS,ioos:station:wmo:42043:1,2009-05-02T15:00:00Z,28.9818,-94.9186,4.0,7.419339593,166.3573276,10.43,'11111222,11111222,11111222' 
TABS,ioos:station:wmo:42043:1,2009-05-02T15:30:00Z,28.9818,-94.9186,4.0,7.431392871,165.6648086,9.57,'11111222,11111222,11111222' 
TABS,ioos:station:wmo:42043:1,2009-05-02T16:00:00Z,28.9818,-94.9186,4.0,7.320826456,161.1940639,9.72,'11111222,11111222,11111222' 
TABS,ioos:station:wmo:42043:1,2009-05-02T16:30:00Z,28.9818,-94.9186,4.0,7.939584372,160.1959485,10.36,'11111222,11111222,11111222' 
TABS,ioos:station:wmo:42043:1,2009-05-02T17:00:00Z,28.9818,-94.9186,4.0,8.225387529,156.2711741,10.03,'11111222,11111222,11111222' 
TABS,ioos:station:wmo:42043:1,2009-05-02T17:30:00Z,28.9818,-94.9186,4.0,8.512020912,160.2241801,10.4,'11111222,11111222,11111222' 
TABS,ioos:station:wmo:42043:1,2009-05-02T18:00:00Z,28.9818,-94.9186,4.0,8.000812459,161.1123842,10.09,'11111222,11111222,11111222' 
TABS,ioos:station:wmo:42043:1,2009-05-02T18:30:00Z,28.9818,-94.9186,4.0,8.272520777,161.6091087,10.2,'11111222,11111222,11111222' 
TABS,ioos:station:wmo:42043:1,2009-05-02T19:00:00Z,28.9818,-94.9186,4.0,7.999156206,162.7658681,10.36,'11111222,11111222,11111222' 
TABS,ioos:station:wmo:42043:1,2009-05-02T19:30:00Z,28.9818,-94.9186,4.0,8.169265573,166.6954662,10.42,'11111222,11111222,11111222' 
TABS,ioos:station:wmo:42043:1,2009-05-02T20:00:00Z,28.9818,-94.9186,4.0,7.286947235,166.9938373,9.2,'11111222,11111222,11111222' 
TABS,ioos:station:wmo:42043:1,2009-05-02T20:30:00Z,28.9818,-94.9186,4.0,7.34895911,166.304366,9.02,'11111222,11111222,11111222' 
TABS,ioos:station:wmo:42043:1,2009-05-02T21:00:00Z,28.9818,-94.9186,4.0,7.558306689,166.846533,9.11,'11111222,11111222,11111222' 
TABS,ioos:station:wmo:42043:1,2009-05-02T21:30:00Z,28.9818,-94.9186,4.0,7.995048468,162.3811686,10.01,'11111222,11111222,11111222' 
TABS,ioos:station:wmo:42043:1,2009-05-02T22:00:00Z,28.9818,-94.9186,4.0,7.618037805,161.8744937,9.63,'11111222,11111222,11111222' 
TABS,ioos:station:wmo:42043:1,2009-05-02T22:30:00Z,28.9818,-94.9186,4.0,7.203367268,164.459105,8.96,'11111222,11111222,11111222' 
TABS,ioos:station:wmo:42043:1,2009-05-02T23:00:00Z,28.9818,-94.9186,4.0,6.065509047,154.6181492,7.94,'11111222,11111222,11111222' 
TABS,ioos:station:wmo:42043:1,2009-05-02T23:30:00Z,28.9818,-94.9186,4.0,6.286445737,159.0281845,8.14,'11111222,11111222,11111222' 
TABS,ioos:station:wmo:42043:1,2009-05-03T00:00:00Z,28.9818,-94.9186,4.0,6.523572641,158.5087314,8.78,'11111222,11111222,11111222' 
TABS,ioos:station:wmo:42043:1,2009-05-03T00:30:00Z,28.9818,-94.9186,4.0,7.285169868,158.7538268,9.18,'11111222,11111222,11111222' 
TABS,ioos:station:wmo:42043:1,2009-05-03T01:00:00Z,28.9818,-94.9186,4.0,7.261432366,159.0193984,9.04,'11111222,11111222,11111222' 
TABS,ioos:station:wmo:42043:1,2009-05-03T01:30:00Z,28.9818,-94.9186,4.0,7.646522085,159.8827142,9.38,'11111222,11111222,11111222' 
TABS,ioos:station:wmo:42043:1,2009-05-03T02:00:00Z,28.9818,-94.9186,4.0,7.526978145,164.9854713,9.81,'11111222,11111222,11111222' 
TABS,ioos:station:wmo:42043:1,2009-05-03T02:30:00Z,28.9818,-94.9186,4.0,6.762307299,168.2250368,8.36,'11111222,11111222,11111222' 
TABS,ioos:station:wmo:42043:1,2009-05-03T03:00:00Z,28.9818,-94.9186,4.0,6.4854915,166.2639743,8.2,'11111222,11111222,11111222' 
TABS,ioos:station:wmo:42043:1,2009-05-03T03:30:00Z,28.9818,-94.9186,4.0,6.467031777,161.9855587,8.66,'11111222,11111222,11111222' 
TABS,ioos:station:wmo:42043:1,2009-05-03T04:00:00Z,28.9818,-94.9186,4.0,6.741757931,159.8719333,9.35,'11111222,11111222,11111222' 
TABS,ioos:station:wmo:42043:1,2009-05-03T04:30:00Z,28.9818,-94.9186,4.0,8.641354061,159.048435,10.94,'11111222,11111222,11111222' 
TABS,ioos:station:wmo:42043:1,2009-05-03T05:00:00Z,28.9818,-94.9186,4.0,8.816450533,161.6886094,10.95,'11111222,11111222,11111222' 
TABS,ioos:station:wmo:42043:1,2009-05-03T05:30:00Z,28.9818,-94.9186,4.0,10.16447244,163.1876235,13.1,'11111222,11111222,11111222' 
TABS,ioos:station:wmo:42043:1,2009-05-03T06:00:00Z,28.9818,-94.9186,4.0,6.28472752,176.076987,8.5,'11111222,11111222,11111222' 
TABS,ioos:station:wmo:42043:1,2009-05-03T06:30:00Z,28.9818,-94.9186,4.0,5.419557177,175.1312249,7.72,'11111222,11111222,11111222' 
TABS,ioos:station:wmo:42043:1,2009-05-03T07:00:00Z,28.9818,-94.9186,4.0,5.660830328,162.2054529,8.05,'11111222,11111222,11111222' 
TABS,ioos:station:wmo:42043:1,2009-05-03T07:30:00Z,28.9818,-94.9186,4.0,5.724508713,152.9876083,7.12,'11111222,11111222,11111222' 
TABS,ioos:station:wmo:42043:1,2009-05-03T08:00:00Z,28.9818,-94.9186,4.0,6.384301058,150.7451883,8.06,'11111222,11111222,11111222' 
TABS,ioos:station:wmo:42043:1,2009-05-03T08:30:00Z,28.9818,-94.9186,4.0,5.264684226,157.673404,7.21,'11111222,11111222,11111222' 
TABS,ioos:station:wmo:42043:1,2009-05-03T09:00:00Z,28.9818,-94.9186,4.0,5.950100839,162.9966366,7.64,'11111222,11111222,11111222' 
TABS,ioos:station:wmo:42043:1,2009-05-03T09:30:00Z,28.9818,-94.9186,4.0,6.343760714,164.737206,8.92,'11111222,11111222,11111222' 
TABS,ioos:station:wmo:42043:1,2009-05-03T10:00:00Z,28.9818,-94.9186,4.0,9.157843633,164.1579787,12.02,'11111222,11111222,11111222' 
TABS,ioos:station:wmo:42043:1,2009-05-03T10:30:00Z,28.9818,-94.9186,4.0,8.154422113,174.0169628,10.78,'11111222,11111222,11111222' 
TABS,ioos:station:wmo:42043:1,2009-05-03T11:00:00Z,28.9818,-94.9186,4.0,7.73,180.0002105,9.6,'11111222,11111222,11111222' 
TABS,ioos:station:wmo:42043:1,2009-05-03T11:30:00Z,28.9818,-94.9186,4.0,9.220347065,179.5030807,12.61,'11111222,11111222,11111222' 
TABS,ioos:station:wmo:42043:1,2009-05-03T12:00:00Z,28.9818,-94.9186,4.0,8.635930755,182.1237575,11.56,'11111222,11111222,11111222' 
TABS,ioos:station:wmo:42043:1,2009-05-03T12:30:00Z,28.9818,-94.9186,4.0,7.98090847,186.4751631,10.7,'11111222,11111222,11111222' 
TABS,ioos:station:wmo:42043:1,2009-05-03T13:00:00Z,28.9818,-94.9186,4.0,6.614778908,207.2624752,8.62,'11111222,11111222,11111222' 
TABS,ioos:station:wmo:42043:1,2009-05-03T13:30:00Z,28.9818,-94.9186,4.0,6.09899172,213.4296478,8.13,'11111222,11111222,11111222' 
TABS,ioos:station:wmo:42043:1,2009-05-03T14:00:00Z,28.9818,-94.9186,4.0,6.463992574,212.362555,8.07,'11111222,11111222,11111222' 
TABS,ioos:station:wmo:42043:1,2009-05-03T14:30:00Z,28.9818,-94.9186,4.0,5.454044371,210.2792622,7.09,'11111222,11111222,11111222' 
TABS,ioos:station:wmo:42043:1,2009-05-03T15:00:00Z,28.9818,-94.9186,4.0,4.68530682,200.0981957,5.84,'11111222,11111222,11111222' 
TABS,ioos:station:wmo:42043:1,2009-05-03T15:30:00Z,28.9818,-94.9186,4.0,4.382510696,201.4131299,6.11,'11111222,11111222,11111222' 
TABS,ioos:station:wmo:42043:1,2009-05-03T16:00:00Z,28.9818,-94.9186,4.0,4.050938163,198.1220283,5.18,'11111222,11111222,11111222' 
TABS,ioos:station:wmo:42043:1,2009-05-03T16:30:00Z,28.9818,-94.9186,4.0,4.632979603,199.0217405,6.07,'11111222,11111222,11111222' 
TABS,ioos:station:wmo:42043:1,2009-05-03T17:00:00Z,28.9818,-94.9186,4.0,6.026084965,188.4933451,7.38,'11111222,11111222,11111222' 
TABS,ioos:station:wmo:42043:1,2009-05-03T17:30:00Z,28.9818,-94.9186,4.0,5.636736645,193.5433554,7.64,'11111222,11111222,11111222' 
TABS,ioos:station:wmo:42043:1,2009-05-03T18:00:00Z,28.9818,-94.9186,4.0,5.959739927,194.8758577,7.38,'11111222,11111222,11111222' 
TABS,ioos:station:wmo:42043:1,2009-05-03T18:30:00Z,28.9818,-94.9186,4.0,4.360045871,216.6071997,6.59,'11111222,11111222,11111222' 
TABS,ioos:station:wmo:42043:1,2009-05-03T19:00:00Z,28.9818,-94.9186,4.0,5.234739726,204.8517382,6.69,'11111222,11111222,11111222' 
TABS,ioos:station:wmo:42043:1,2009-05-03T19:30:00Z,28.9818,-94.9186,4.0,4.566979308,200.7764614,5.77,'11111222,11111222,11111222' 
TABS,ioos:station:wmo:42043:1,2009-05-03T20:00:00Z,28.9818,-94.9186,4.0,3.432855954,196.5875102,4.64,'11111222,11111222,11111222' 
TABS,ioos:station:wmo:42043:1,2009-05-03T20:30:00Z,28.9818,-94.9186,4.0,3.333301667,188.1059851,4.73,'11111222,11111222,11111222' 
TABS,ioos:station:wmo:42043:1,2009-05-03T21:00:00Z,28.9818,-94.9186,4.0,3.430524741,178.9980565,4.8,'11111222,11111222,11111222' 
TABS,ioos:station:wmo:42043:1,2009-05-03T21:30:00Z,28.9818,-94.9186,4.0,3.145155004,176.7193374,4.67,'11111222,11111222,11111222' 
TABS,ioos:station:wmo:42043:1,2009-05-03T22:00:00Z,28.9818,-94.9186,4.0,5.238778484,165.8578969,6.88,'11111222,11111222,11111222' 
TABS,ioos:station:wmo:42043:1,2009-05-03T22:30:00Z,28.9818,-94.9186,4.0,5.350607442,161.3621295,7.23,'11111222,11111222,11111222' 
TABS,ioos:station:wmo:42043:1,2009-05-03T23:00:00Z,28.9818,-94.9186,4.0,5.558866791,169.7414827,7.08,'11111222,11111222,11111222' 
TABS,ioos:station:wmo:42043:1,2009-05-03T23:30:00Z,28.9818,-94.9186,4.0,4.765899705,166.2847354,6.42,'11111222,11111222,11111222' 
TABS,ioos:station:wmo:42043:1,2009-05-04T00:00:00Z,28.9818,-94.9186,4.0,4.73972573,170.1603171,5.97,'11111222,11111222,11111222' 
TABS,ioos:station:wmo:42043:1,2009-05-04T00:30:00Z,28.9818,-94.9186,4.0,4.308746918,168.3512809,5.59,'11111222,11111222,11111222' 
TABS,ioos:station:wmo:42043:1,2009-05-04T01:00:00Z,28.9818,-94.9186,4.0,4.255643312,163.4815446,5.19,'11111222,11111222,11111222' 
TABS,ioos:station:wmo:42043:1,2009-05-04T01:30:00Z,28.9818,-94.9186,4.0,4.656951793,163.2774365,5.93,'11111222,11111222,11111222' 
TABS,ioos:station:wmo:42043:1,2009-05-04T02:00:00Z,28.9818,-94.9186,4.0,4.018420088,168.6623417,5.26,'11111222,11111222,11111222' 
TABS,ioos:station:wmo:42043:1,2009-05-04T02:30:00Z,28.9818,-94.9186,4.0,3.764306045,163.0094269,4.75,'11111222,11111222,11111222' 
TABS,ioos:station:wmo:42043:1,2009-05-04T03:00:00Z,28.9818,-94.9186,4.0,3.745183574,171.0912313,5.0,'11111222,11111222,11111222' 
TABS,ioos:station:wmo:42043:1,2009-05-04T03:30:00Z,28.9818,-94.9186,4.0,4.210190019,180.5445708,5.42,'11111222,11111222,11111222' 
TABS,ioos:station:wmo:42043:1,2009-05-04T04:00:00Z,28.9818,-94.9186,4.0,4.044465354,182.6928237,5.08,'11111222,11111222,11111222' 
TABS,ioos:station:wmo:42043:1,2009-05-04T04:30:00Z,28.9818,-94.9186,4.0,4.322614949,191.8820141,5.5,'11111222,11111222,11111222' 
TABS,ioos:station:wmo:42043:1,2009-05-04T05:00:00Z,28.9818,-94.9186,4.0,3.911892125,198.9446032,5.01,'11111222,11111222,11111222' 
TABS,ioos:station:wmo:42043:1,2009-05-04T05:30:00Z,28.9818,-94.9186,4.0,4.421097149,203.3178643,5.61,'11111222,11111222,11111222' 
TABS,ioos:station:wmo:42043:1,2009-05-04T06:00:00Z,28.9818,-94.9186,4.0,3.44768038,213.0449014,4.51,'11111222,11111222,11111222' 
TABS,ioos:station:wmo:42043:1,2009-05-04T06:30:00Z,28.9818,-94.9186,4.0,3.151459979,237.5707155,4.29,'11111222,11111222,11111222' 
TABS,ioos:station:wmo:42043:1,2009-05-04T07:00:00Z,28.9818,-94.9186,4.0,3.161012496,231.6799757,4.13,'11111222,11111222,11111222' 
TABS,ioos:station:wmo:42043:1,2009-05-04T07:30:00Z,28.9818,-94.9186,4.0,2.355928692,319.8206496,5.7,'11111222,11111222,11111222' 
TABS,ioos:station:wmo:42043:1,2009-05-04T08:00:00Z,28.9818,-94.9186,4.0,5.608315255,26.01651164,7.05,'11111222,11111222,11111222' 
TABS,ioos:station:wmo:42043:1,2009-05-04T08:30:00Z,28.9818,-94.9186,4.0,6.490192601,27.63080473,8.06,'11111222,11111222,11111222' 
TABS,ioos:station:wmo:42043:1,2009-05-04T09:00:00Z,28.9818,-94.9186,4.0,5.845784806,21.47353992,7.18,'11111222,11111222,11111222' 
TABS,ioos:station:wmo:42043:1,2009-05-04T09:30:00Z,28.9818,-94.9186,4.0,5.643872784,20.97165405,7.53,'11111222,11111222,11111222' 
TABS,ioos:station:wmo:42043:1,2009-05-04T10:00:00Z,28.9818,-94.9186,4.0,8.455323767,2.033100456,11.04,'11111222,11111222,11111222' 
TABS,ioos:station:wmo:42043:1,2009-05-04T10:30:00Z,28.9818,-94.9186,4.0,8.601034821,4.868529298,11.08,'11111222,11111222,11111222' 
TABS,ioos:station:wmo:42043:1,2009-05-04T11:00:00Z,28.9818,-94.9186,4.0,8.612607039,7.941710521,11.13,'11111222,11111222,11111222' 
TABS,ioos:station:wmo:42043:1,2009-05-04T11:30:00Z,28.9818,-94.9186,4.0,8.614522622,3.327186002,10.66,'11111222,11111222,11111222' 
TABS,ioos:station:wmo:42043:1,2009-05-04T12:00:00Z,28.9818,-94.9186,4.0,8.729129395,11.29682303,11.38,'11111222,11111222,11111222' 
TABS,ioos:station:wmo:42043:1,2009-05-04T12:30:00Z,28.9818,-94.9186,4.0,8.258964826,11.94915972,10.29,'11111222,11111222,11111222' 
TABS,ioos:station:wmo:42043:1,2009-05-04T13:00:00Z,28.9818,-94.9186,4.0,7.494664769,18.19294291,9.89,'11111222,11111222,11111222' 
TABS,ioos:station:wmo:42043:1,2009-05-04T13:30:00Z,28.9818,-94.9186,4.0,7.619356928,22.28988774,9.9,'11111222,11111222,11111222' 
TABS,ioos:station:wmo:42043:1,2009-05-04T14:00:00Z,28.9818,-94.9186,4.0,7.204012771,20.90020803,9.36,'11111222,11111222,11111222' 
TABS,ioos:station:wmo:42043:1,2009-05-04T14:30:00Z,28.9818,-94.9186,4.0,5.772642376,30.96347367,7.6,'11111222,11111222,11111222' 
TABS,ioos:station:wmo:42043:1,2009-05-04T15:00:00Z,28.9818,-94.9186,4.0,5.048494825,39.7762056,6.3,'11111222,11111222,11111222' 
TABS,ioos:station:wmo:42043:1,2009-05-04T15:30:00Z,28.9818,-94.9186,4.0,5.007294679,46.13250142,6.61,'11111222,11111222,11111222' 
TABS,ioos:station:wmo:42043:1,2009-05-04T16:00:00Z,28.9818,-94.9186,4.0,5.597320788,48.62116055,7.36,'11111222,11111222,11111222' 
TABS,ioos:station:wmo:42043:1,2009-05-04T16:30:00Z,28.9818,-94.9186,4.0,5.466488818,45.81496188,6.94,'11111222,11111222,11111222' 
TABS,ioos:station:wmo:42043:1,2009-05-04T17:00:00Z,28.9818,-94.9186,4.0,5.309472667,49.0472358,6.67,'11111222,11111222,11111222' 
TABS,ioos:station:wmo:42043:1,2009-05-04T17:30:00Z,28.9818,-94.9186,4.0,5.022917479,66.03714614,6.66,'11111222,11111222,11111222' 
TABS,ioos:station:wmo:42043:1,2009-05-04T18:00:00Z,28.9818,-94.9186,4.0,4.203046514,81.79238186,5.45,'11111222,11111222,11111222' 
TABS,ioos:station:wmo:42043:1,2009-05-04T18:30:00Z,28.9818,-94.9186,4.0,3.822525343,78.07235033,5.47,'11111222,11111222,11111222' 